Overview Statistics Trail Chart Weather Telemetry Raw packets
 

This is the latest recevied weather packets stored in our database for station/object W0WC. If no packets are shown the sender has not sent any weather packets the latest 10 day(s).

<< 18 19 20 21 22 23 24 >>
Time Temp. Humidity Pressure Rain* Wind** Luminosity Snow
1788563839 37.78° C 35% 1013 hPa 0 mm - 109 W/m² -
1788563535 37.22° C 35% 1013 hPa 0 mm - 121 W/m² -
1788563235 37.78° C 34% 1013.2 hPa 0 mm - 136 W/m² -
1788562929 37.78° C 35% 1013.3 hPa 0 mm - 158 W/m² -
1788562628 37.78° C 35% 1013.2 hPa 0 mm - 171 W/m² -
1788562323 37.78° C 35% 1012.9 hPa 0 mm - 180 W/m² -
1788562021 37.78° C 34% 1013.1 hPa 0 mm - 212 W/m² -
1788561717 37.78° C 34% 1013.1 hPa 0 mm - 226 W/m² -
1788561416 37.78° C 34% 1013.2 hPa 0 mm - 237 W/m² -
1788561111 37.78° C 35% 1013.2 hPa 0 mm - 263 W/m² -
1788560807 37.78° C 35% 1013.3 hPa 0 mm - 286 W/m² -
1788560503 37.22° C 35% 1013.2 hPa 0 mm - 308 W/m² -
1788560202 37.78° C 35% 1013 hPa 0 mm - 168 W/m² -
1788559897 37.78° C 35% 1013.2 hPa 0 mm - 317 W/m² -
1788559592 37.22° C 36% 1013.1 hPa 0 mm - 343 W/m² -
1788559287 37.78° C 34% 1013.4 hPa 0 mm - 347 W/m² -
1788558982 38.33° C 34% 1013.4 hPa 0 mm - 365 W/m² -
1788558678 37.78° C 34% 1013.3 hPa 0 mm - 381 W/m² -
1788558378 38.33° C 34% 1013.4 hPa 0 mm - 395 W/m² -
1788558074 37.78° C 34% 1013.4 hPa 0 mm - 406 W/m² -
1788557771 37.78° C 35% 1013.7 hPa 0 mm - 418 W/m² -
1788557468 38.33° C 34% 1013.7 hPa 0 mm - 430 W/m² -
1788557167 38.33° C 34% 1013.5 hPa 0 mm - 436 W/m² -
1788556863 37.78° C 34% 1013.3 hPa 0 mm - 449 W/m² -
1788556562 37.78° C 35% 1013.6 hPa 0 mm - 463 W/m² -

* Rain latest hour (hover to see other rain measurements)
** Current wind speed in m/s (hover to see current wind gust speed)